Springfield, MO

10:57 AM CDT on September 26, 2016 (GMT -0500)
Springfield-Branson Regional

Weather History for KSGF - June, 2014

Change the Weather History Date:

Sunday, June 8, 2014

  Actual Average Record
Temperature  
Mean Temperature 66 °F 72 °F  
Max Temperature 70 °F 82 °F 97 °F (1972)
Min Temperature 61 °F 61 °F 49 °F (1977)
Degree Days  
Heating Degree Days 0 0  
Month to date heating degree days 0 7  
Since 1 June heating degree days 0 7  
Since 1 July heating degree days 5020 4576  
Cooling Degree Days 1 7  
Month to date cooling degree days 70 51  
Year to date cooling degree days 263 166  
Since 1 June cooling degree days 70 51  
Growing Degree Days 16 (Base 50)    
Moisture  
Dew Point 61 °F    
Average Humidity 82    
Maximum Humidity 97    
Minimum Humidity 66    
Precipitation  
Precipitation 0.12 in 0.16 in 1.48 in (1907)
Month to date precipitation 3.48 1.28  
Year to date precipitation 14.96 19.31  
Snow  
Snow 0.00 in - - ()
Month to date snowfall 0.0  
Since 1 June snowfall 0.0  
Since 1 July snowfall 32.2  
Snow Depth 0.00 in    
Sea Level Pressure  
Sea Level Pressure 29.97 in    
Wind  
Wind Speed 7 mph (ENE)    
Max Wind Speed 15 mph    
Max Gust Speed 18 mph    
Visibility 9 miles    
Events Rain    
T = Trace of Precipitation, MM = Missing Value Source: NWS Daily Summary

Daily Weather History Graph

Daily Weather History Graph

Search for Another Location

Airport or City:

Trip Planner

Search our weather history database for the weather conditions in past years. The results will help you decide how hot, cold, wet, or windy it might be!

Date:

Astronomy

Jun. 08, 2014 Rise Set
Actual Time 5:53 AM CDT 8:32 PM CDT
Civil Twilight 5:22 AM CDT 9:03 PM CDT
Nautical Twilight 4:44 AM CDT 9:41 PM CDT
Astronomical Twilight 4:01 AM CDT 10:24 PM CDT
Moon 3:56 PM CDT (6/8) 2:40 AM CDT (6/8)
Length of Visible Light 15h 40m
Length of Day
14h 39m
Waxing Gibbous, 77% of the Moon is Illuminated
Jun 8
Waxing Gibbous
Jun 12
Full
Jun 19
Last Quarter
Jun 27
New
Jul 5
First Quarter

Hourly Weather History & Observations

Time (CDT) Temp. Dew Point Humidity Pressure Visibility Wind Dir Wind Speed Gust Speed Precip Events Conditions
12:52 AM 64.9 °F 61.0 °F 87% 29.95 in 10.0 mi NNW 5.8 mph - N/A   Clear
1:52 AM 64.0 °F 61.0 °F 90% 29.93 in 10.0 mi North 6.9 mph - N/A   Clear
2:52 AM 63.0 °F 60.1 °F 90% 29.93 in 10.0 mi North 5.8 mph - N/A   Clear
3:52 AM 62.1 °F 59.0 °F 90% 29.95 in 10.0 mi North 4.6 mph - N/A   Clear
4:52 AM 62.1 °F 59.0 °F 90% 29.96 in 9.0 mi North 5.8 mph - N/A   Clear
5:52 AM 61.0 °F 59.0 °F 93% 29.96 in 7.0 mi NNE 6.9 mph - N/A   Clear
6:52 AM 62.1 °F 59.0 °F 90% 29.98 in 8.0 mi NE 8.1 mph - N/A   Clear
7:23 AM 62.1 °F 59.0 °F 90% 30.02 in 7.0 mi NE 12.7 mph - N/A   Scattered Clouds
7:32 AM 62.1 °F 59.0 °F 90% 30.03 in 7.0 mi ENE 9.2 mph - N/A   Mostly Cloudy
7:52 AM 62.1 °F 59.0 °F 90% 30.01 in 7.0 mi ENE 6.9 mph - N/A   Mostly Cloudy
8:08 AM 62.1 °F 59.0 °F 90% 30.03 in 8.0 mi NE 9.2 mph - N/A   Scattered Clouds
8:52 AM 64.0 °F 59.0 °F 84% 30.01 in 10.0 mi East 5.8 mph - N/A   Clear
9:52 AM 66.0 °F 57.9 °F 75% 30.01 in 10.0 mi ENE 9.2 mph - N/A   Clear
10:52 AM 68.0 °F 57.9 °F 70% 30.02 in 10.0 mi East 8.1 mph - N/A   Clear
11:52 AM 69.1 °F 57.9 °F 68% 30.03 in 10.0 mi East 8.1 mph - N/A   Clear
12:52 PM 69.1 °F 57.9 °F 68% 30.01 in 10.0 mi East 6.9 mph - N/A   Clear
1:52 PM 70.0 °F 59.0 °F 68% 29.98 in 10.0 mi East 6.9 mph - N/A   Clear
2:52 PM 69.8 °F 60.8 °F 73% 29.96 in 10.0 mi East 9.2 mph - N/A   Partly Cloudy
3:52 PM 69.1 °F 62.1 °F 78% 29.96 in 7.0 mi South 4.6 mph - 0.00 in Rain Light Rain
4:52 PM 66.9 °F 63.0 °F 87% 29.97 in 5.0 mi Calm Calm - 0.08 in Rain Light Rain
5:50 PM 66.2 °F 64.4 °F 94% 29.97 in 10.0 mi NNE 6.9 mph - 0.04 in Rain Light Rain
5:52 PM 66.9 °F 64.0 °F 90% 29.95 in 10.0 mi NE 6.9 mph - 0.04 in Rain Light Rain
6:02 PM 66.9 °F 64.0 °F 90% 29.96 in 9.0 mi NE 8.1 mph - 0.00 in Rain Light Rain
6:52 PM 66.9 °F 64.0 °F 90% 29.92 in 10.0 mi ENE 9.2 mph - 0.00 in   Mostly Cloudy
7:52 PM 66.0 °F 63.0 °F 90% 29.92 in 10.0 mi East 9.2 mph - N/A   Overcast
8:52 PM 66.0 °F 63.0 °F 90% 29.93 in 10.0 mi East 5.8 mph - N/A   Overcast
9:52 PM 66.0 °F 62.1 °F 87% 29.93 in 10.0 mi East 8.1 mph - N/A   Overcast
10:18 PM 66.0 °F 62.1 °F 87% 29.95 in 10.0 mi ESE 5.8 mph - N/A   Mostly Cloudy
10:31 PM 66.0 °F 62.1 °F 87% 29.96 in 10.0 mi East 6.9 mph - N/A   Overcast
10:52 PM 64.9 °F 61.0 °F 87% 29.93 in 10.0 mi East 5.8 mph - N/A   Mostly Cloudy
11:00 PM 64.9 °F 61.0 °F 87% 29.96 in 10.0 mi East 4.6 mph - N/A   Scattered Clouds
11:33 PM 64.0 °F 61.0 °F 90% 29.96 in 10.0 mi NE 5.8 mph - N/A   Mostly Cloudy
11:52 PM 64.0 °F 61.0 °F 90% 29.93 in 10.0 mi NE 5.8 mph - N/A   Mostly Cloudy